[[{"header":{"parameterUnit":"m.s-1","parameterCategory":1,"la1":30.2991,"la2":30.254,"lo1":-89.0895,"lo2":-89.0444,"dy":0.0017,"dx":0.0017,"nx":28,"ny":28,"refTime":"2023-09-30T21:00:00:Z","depth":0,"parameterNumber":2,"parameterNumberName":"U-component_of_WINDS"},"data":[0,0,0,0,0,0,0,0,0,0,0,0,0,0,0,0,0,0,0,0,0,0,0,0,0,0,0,0,0,0,0,0,0,0,0,0,0,0,0,0,0,0,0,0,0,0,0,0,0,0,0,0,0,0,0,0,0,0,-6.0881,-6.0881,0,-6.0931,-6.0932,-6.0932,-6.0835,-6.0832,-6.0829,-6.0826,-6.0877,-6.0881,-6.0885,0,0,0,0,0,0,0,0,0,0,0,0,0,-6.0701,-6.0705,-6.0881,-6.0881,-6.0882,-6.0931,-6.0932,-6.0932,-6.0836,-6.0832,-6.0828,-6.0824,-6.0875,-6.088,-6.0886,0,0,0,0,0,0,0,0,0,0,0,0,0,-6.0768,-6.0707,-6.0881,-6.084,-6.0836,-6.0931,-6.0932,-6.0932,-6.0836,-6.0832,-6.0827,-6.0822,-6.0874,-6.088,-6.0886,-6.1023,0,0,-6.0906,-6.0909,0,0,0,0,0,0,0,0,-6.0765,-6.0775,-6.0845,-6.0843,-6.0839,-6.0872,-6.0887,-6.0963,-6.0838,-6.0836,-6.0825,-6.082,-6.0879,-6.0885,-6.0905,-6.1025,-6.1027,-6.0907,-6.0911,-6.0914,-6.0915,0,0,0,0,0,0,0,-6.076,-6.0772,-6.09,-6.0846,-6.0843,-6.0819,-6.0823,-6.0901,-6.0884,-6.0836,-6.0829,-6.0837,-6.0876,-6.0899,-6.0905,-6.1028,-6.0907,-6.0912,-6.0916,-6.0919,-6.1265,-6.127,0,0,0,0,0,0,-6.0761,-6.0769,-6.0899,-6.0902,-6.0789,-6.0826,-6.0831,-6.0866,-6.0883,-6.0881,-6.0841,-6.0832,-6.089,-6.0898,-6.0907,-6.1068,-6.0914,-6.092,-6.0923,-6.1259,-6.1266,-6.1272,0,0,0,0,0,0,-6.0757,-6.0773,-6.0897,-6.0834,-6.0848,-6.0834,-6.0875,-6.087,-6.0892,-6.0886,-6.0883,-6.0866,-6.0886,-6.0897,-6.0995,-6.1069,-6.0923,-6.0929,-6.1253,-6.1261,-6.1269,-6.1393,0,0,0,0,0,0,-6.0752,-6.0773,-6.0824,-6.0836,-6.0851,-6.0985,-6.0879,-6.0874,-6.0903,-6.0892,-6.0909,-6.0908,-6.0883,-6.0986,-6.1002,-6.1075,-6.0934,-6.1247,-6.1257,-6.1266,-6.1382,-6.1404,-6.1423,0,0,0,0,0,-6.0746,-6.0856,-6.0827,-6.0843,-6.0916,-6.0989,-6.0998,-6.0968,-6.091,-6.0962,-6.0958,-6.0907,-6.1058,-6.0997,-6.1013,-6.109,-6.1242,-6.1254,-6.1265,-6.1373,-6.14,-6.1422,0,0,0,0,0,0,-6.0853,-6.0857,-6.0825,-6.0942,-6.0966,-6.0972,-6.1037,-6.0997,-6.1038,-6.1026,-6.0987,-6.0992,-6.1097,-6.1103,-6.1035,-6.1224,-6.114,-6.1156,-6.1216,-6.1242,-6.1262,-6.1258,-6.0939,0,0,0,0,0,-6.089,-6.095,-6.095,-6.1053,-6.1067,-6.1051,-6.1081,-6.1056,-6.1079,-6.1089,-6.1093,-6.1118,-6.117,-6.1206,-6.1255,-6.1383,-6.1386,-6.1444,-6.1464,-6.1481,-6.1495,-6.1565,-6.1591,-6.1311,-6.131,-6.131,0,0,-6.0968,-6.0977,-6.1017,-6.1075,-6.1091,-6.1154,-6.106,-6.1129,-6.1176,-6.11,-6.1192,-6.1196,-6.1221,-6.1335,-6.1385,-6.1343,-6.1573,-6.1496,-6.1509,-6.1515,-6.158,-6.1606,-6.163,-6.1319,-6.1317,-6.1316,0,0,-6.1141,-6.1154,-6.1242,-6.126,-6.1286,-6.1274,-6.1295,-6.1309,-6.1308,-6.1401,-6.1346,-6.14,-6.1492,-6.1513,-6.1535,-6.1719,-6.1674,-6.1736,-6.1842,-6.191,-6.1932,-6.1952,-6.2018,-6.2043,-6.175,-6.175,-6.175,0,-6.1234,-6.1326,-6.1292,-6.1367,-6.1395,-6.1329,-6.1419,-6.1438,-6.1478,-6.1499,-6.1451,-6.1566,-6.1578,-6.1697,-6.1742,-6.1762,-6.1786,-6.1733,-6.1932,-6.1951,-6.1969,-6.2032,-6.2057,-6.1757,-6.1757,-6.1756,-6.1755,0,-6.144,-6.1505,-6.1573,-6.1614,-6.1649,-6.1731,-6.171,-6.175,-6.1723,-6.1716,-6.1812,-6.1825,-6.1875,-6.1901,-6.1875,-6.2017,-6.199,-6.1938,-6.1853,-6.2004,-6.2062,-6.2086,-6.1768,-6.1765,-6.1763,-6.1761,0,0,-6.168,-6.1703,-6.1729,-6.1748,-6.1772,-6.1821,-6.1901,-6.1951,-6.1986,-6.2016,-6.2082,-6.2163,-6.2115,-6.2141,-6.2116,-6.2176,-6.2322,-6.2117,-6.2117,-6.2155,-6.2482,-6.2521,-6.255,-6.2293,-6.2297,-6.2301,-6.248,0,-6.1853,-6.199,-6.1963,-6.2096,-6.2157,-6.2097,-6.2166,-6.2189,-6.2185,-6.2236,-6.2232,-6.229,-6.2222,-6.2238,-6.2294,-6.2293,-6.2388,-6.2279,-6.2355,-6.2358,-6.2351,-6.258,-6.2622,-6.279,-6.2502,-6.2506,-6.2509,0,-6.2072,-6.2112,-6.2252,-6.2268,-6.2293,-6.2355,-6.24,-6.2449,-6.2474,-6.2468,-6.2498,-6.2462,-6.2542,-6.2456,-6.2566,-6.2493,-6.2522,-6.2526,-6.2532,-6.2538,-6.2443,-6.2593,-6.2843,-6.2868,-6.2544,-6.2542,-6.2539,0,-6.2235,-6.2324,-6.2419,-6.2437,-6.2458,-6.2504,-6.2514,-6.2535,-6.2567,-6.2606,-6.2627,-6.2675,-6.2701,-6.2739,-6.2718,-6.2657,-6.2832,-6.2744,-6.2829,-6.283,-6.2869,-6.2867,-6.3128,-6.2887,-6.2887,-6.2886,-6.2886,0,-6.2431,-6.252,-6.2493,-6.2552,-6.265,-6.2618,-6.2716,-6.2719,-6.2738,-6.2797,-6.2748,-6.2804,-6.2772,-6.2827,-6.2811,-6.2905,-6.2917,-6.2914,-6.2909,-6.2919,-6.292,-6.2938,-6.2926,-6.2893,-6.2892,-6.289,-6.2889,0,-6.263,-6.2615,-6.2716,-6.2728,-6.2733,-6.2805,-6.2815,-6.2871,-6.2864,-6.294,-6.2955,-6.2945,-6.3007,-6.299,-6.3056,-6.3045,-6.3165,-6.3144,-6.3157,-6.3152,-6.3239,-6.3231,-6.3521,-6.3557,-6.3293,-6.3296,-6.3298,0,-6.2756,-6.2823,-6.2842,-6.2879,-6.2894,-6.2952,-6.2986,-6.2957,-6.2994,-6.3029,-6.308,-6.3138,-6.3182,-6.3284,-6.3282,-6.3334,-6.3314,-6.3412,-6.3322,-6.333,-6.3317,-6.3314,-6.3321,-6.3431,-6.3434,-6.3436,-6.3438,0,-6.2982,-6.2972,-6.3021,-6.307,-6.3111,-6.3148,-6.3179,-6.3212,-6.3186,-6.323,-6.3293,-6.3327,-6.3396,-6.3454,-6.3501,-6.3512,-6.3472,-6.3467,-6.3489,-6.35,-6.3505,-6.3505,-6.3207,-6.346,-6.3458,-6.3456,-6.3455,-6.3454,-6.3148,-6.3205,-6.3229,-6.3286,-6.3308,-6.3339,-6.3392,-6.3393,-6.3445,-6.3499,-6.3479,-6.3552,-6.3576,-6.3636,-6.3653,-6.371,-6.3672,-6.3705,-6.3713,-6.3722,-6.3733,-6.3496,-6.3718,-6.3718,-6.3717,-6.3716,-6.3716,0,-6.3372,-6.3385,-6.3438,-6.3485,-6.3531,-6.3489,-6.3522,-6.3564,-6.3628,-6.3655,-6.37,-6.3773,-6.3829,-6.3834,-6.3887,-6.3932,-6.3914,-6.3947,-6.3943,-6.3947,-6.3763,-6.3739,-6.396,-6.396,-6.396,-6.396,-6.396,-6.396,-6.3494,-6.3589,-6.3583,-6.3688,-6.37,-6.3771,-6.3794,-6.3823,-6.3844,-6.3928,-6.3975,-6.3977,-6.3996,-6.405,-6.4101,-6.41,-6.4123,-6.4162,-6.4155,-6.3984,-6.3959,-6.3936,-6.3913,-6.4167,-6.4168,-6.4334,-6.4336,-6.4337]},{"header":{"parameterUnit":"m.s-1","parameterCategory":1,"la1":30.2991,"la2":30.254,"lo1":-89.0895,"lo2":-89.0444,"dy":0.0017,"dx":0.0017,"nx":28,"ny":28,"refTime":"2023-09-30T21:00:00:Z","depth":0,"parameterNumber":3,"parameterNumberName":"V-component_of_WINDS"},"data":[0,0,0,0,0,0,0,0,0,0,0,0,0,0,0,0,0,0,0,0,0,0,0,0,0,0,0,0,0,0,0,0,0,0,0,0,0,0,0,0,0,0,0,0,0,0,0,0,0,0,0,0,0,0,0,0,0,0,-1.5732,-1.5731,0,-1.573,-1.573,-1.573,-1.5691,-1.569,-1.5689,-1.5688,-1.5689,-1.569,-1.5691,0,0,0,0,0,0,0,0,0,0,0,0,0,-1.57,-1.5701,-1.5732,-1.5731,-1.5731,-1.573,-1.573,-1.573,-1.5692,-1.569,-1.5689,-1.5688,-1.5688,-1.569,-1.5691,0,0,0,0,0,0,0,0,0,0,0,0,0,-1.5708,-1.5701,-1.5732,-1.5712,-1.571,-1.573,-1.573,-1.573,-1.5692,-1.569,-1.5689,-1.5687,-1.5688,-1.5689,-1.5691,-1.573,0,0,-1.5695,-1.5696,0,0,0,0,0,0,0,0,-1.5708,-1.5709,-1.5715,-1.5713,-1.5711,-1.5709,-1.5719,-1.573,-1.5692,-1.5699,-1.5688,-1.5687,-1.5697,-1.5698,-1.5701,-1.573,-1.573,-1.5695,-1.5696,-1.5697,-1.5697,0,0,0,0,0,0,0,-1.5707,-1.5709,-1.5731,-1.5715,-1.5713,-1.5703,-1.5703,-1.5721,-1.5707,-1.5698,-1.5695,-1.5696,-1.5696,-1.5699,-1.57,-1.573,-1.5695,-1.5697,-1.5697,-1.5698,-1.579,-1.5792,0,0,0,0,0,0,-1.5709,-1.5709,-1.5731,-1.5731,-1.5706,-1.5705,-1.5704,-1.5712,-1.5706,-1.5704,-1.5697,-1.5694,-1.5698,-1.5699,-1.57,-1.5745,-1.5697,-1.5698,-1.5699,-1.5789,-1.5791,-1.5792,0,0,0,0,0,0,-1.5709,-1.5712,-1.5731,-1.5719,-1.5721,-1.5707,-1.5716,-1.5712,-1.5716,-1.5705,-1.5702,-1.5704,-1.5697,-1.5698,-1.5723,-1.5745,-1.5699,-1.57,-1.5787,-1.5789,-1.5792,-1.5836,0,0,0,0,0,0,-1.5708,-1.5712,-1.5727,-1.572,-1.5722,-1.5754,-1.5717,-1.5714,-1.5719,-1.5714,-1.5711,-1.5709,-1.5696,-1.5721,-1.5724,-1.5746,-1.5701,-1.5785,-1.5788,-1.5791,-1.5833,-1.584,-1.5846,0,0,0,0,0,-1.5707,-1.574,-1.5727,-1.573,-1.574,-1.5755,-1.5756,-1.574,-1.572,-1.5735,-1.5728,-1.5709,-1.5742,-1.5723,-1.5727,-1.575,-1.5783,-1.5787,-1.5791,-1.583,-1.5839,-1.5846,0,0,0,0,0,0,-1.575,-1.5739,-1.5725,-1.5756,-1.5757,-1.5748,-1.5767,-1.575,-1.5757,-1.5753,-1.5733,-1.5732,-1.5759,-1.5757,-1.5737,-1.5787,-1.5759,-1.5764,-1.5788,-1.5796,-1.5802,-1.5803,-1.5702,0,0,0,0,0,-1.5763,-1.5776,-1.5765,-1.5794,-1.5795,-1.5781,-1.5787,-1.5774,-1.5774,-1.5774,-1.5769,-1.577,-1.578,-1.5788,-1.5797,-1.5832,-1.583,-1.5849,-1.5856,-1.5861,-1.5866,-1.5883,-1.5891,-1.5804,-1.5804,-1.5804,0,0,-1.5791,-1.5786,-1.5796,-1.5803,-1.5802,-1.5816,-1.5782,-1.5798,-1.5808,-1.5777,-1.58,-1.5795,-1.5795,-1.5825,-1.5838,-1.5823,-1.5889,-1.5866,-1.587,-1.5872,-1.5888,-1.5896,-1.5903,-1.5807,-1.5806,-1.5806,0,0,-1.5848,-1.5846,-1.5869,-1.5869,-1.5867,-1.5857,-1.5862,-1.5856,-1.5852,-1.5874,-1.5851,-1.5862,-1.5881,-1.5881,-1.5884,-1.594,-1.5922,-1.5943,-1.5978,-1.5995,-1.6002,-1.6008,-1.6028,-1.6035,-1.5947,-1.5947,-1.5947,0,-1.5883,-1.5903,-1.5884,-1.5901,-1.5905,-1.5876,-1.59,-1.59,-1.5902,-1.5905,-1.5889,-1.591,-1.5908,-1.5937,-1.5951,-1.5954,-1.5959,-1.5944,-1.6003,-1.6009,-1.6014,-1.6032,-1.604,-1.595,-1.595,-1.5949,-1.5949,0,-1.5945,-1.5959,-1.5978,-1.598,-1.5985,-1.6006,-1.599,-1.5997,-1.5984,-1.5976,-1.5998,-1.5994,-1.6001,-1.6007,-1.5994,-1.6034,-1.6025,-1.6006,-1.5978,-1.6025,-1.6042,-1.6049,-1.5954,-1.5953,-1.5952,-1.5951,0,0,-1.6032,-1.6021,-1.6028,-1.6028,-1.6023,-1.6034,-1.6052,-1.6059,-1.6066,-1.6067,-1.6083,-1.6098,-1.608,-1.6083,-1.607,-1.6085,-1.6129,-1.6064,-1.6064,-1.6077,-1.6172,-1.6187,-1.6195,-1.6117,-1.6118,-1.6119,-1.6172,0,-1.6087,-1.6118,-1.6101,-1.6135,-1.6147,-1.6119,-1.6135,-1.6134,-1.6126,-1.6135,-1.6127,-1.6138,-1.6114,-1.6115,-1.6129,-1.6121,-1.6148,-1.6117,-1.6131,-1.6132,-1.6133,-1.6204,-1.622,-1.627,-1.6179,-1.618,-1.6181,0,-1.6157,-1.616,-1.6195,-1.6186,-1.6191,-1.6206,-1.6209,-1.6219,-1.6216,-1.621,-1.6212,-1.6195,-1.6212,-1.6184,-1.6208,-1.6187,-1.6191,-1.6188,-1.619,-1.6191,-1.616,-1.6208,-1.6286,-1.6294,-1.6191,-1.619,-1.6189,0,-1.6216,-1.623,-1.6252,-1.6252,-1.6243,-1.6254,-1.6251,-1.6247,-1.6251,-1.6255,-1.6257,-1.6263,-1.6266,-1.6271,-1.6255,-1.6236,-1.6281,-1.6251,-1.6276,-1.6277,-1.6288,-1.6288,-1.6368,-1.629,-1.629,-1.629,-1.629,0,-1.628,-1.6303,-1.6278,-1.6292,-1.6316,-1.6295,-1.6319,-1.6313,-1.6309,-1.6321,-1.6297,-1.6309,-1.6288,-1.6297,-1.6285,-1.6307,-1.6308,-1.6304,-1.63,-1.6306,-1.6307,-1.6309,-1.6306,-1.6292,-1.6291,-1.6291,-1.6291,0,-1.6352,-1.6336,-1.6358,-1.6347,-1.6344,-1.6363,-1.6353,-1.6365,-1.6355,-1.637,-1.6373,-1.6357,-1.6367,-1.6352,-1.636,-1.6352,-1.6382,-1.6373,-1.6383,-1.638,-1.6406,-1.6404,-1.6492,-1.6502,-1.6417,-1.6418,-1.6418,0,-1.6394,-1.641,-1.64,-1.6406,-1.6404,-1.6414,-1.6418,-1.6397,-1.6403,-1.64,-1.6413,-1.642,-1.6425,-1.6443,-1.6432,-1.6438,-1.643,-1.646,-1.643,-1.6435,-1.643,-1.643,-1.6431,-1.6466,-1.6467,-1.6468,-1.6469,0,-1.6471,-1.6461,-1.6468,-1.6471,-1.6477,-1.6479,-1.6479,-1.6485,-1.6463,-1.647,-1.648,-1.6484,-1.6491,-1.6499,-1.6503,-1.6499,-1.6481,-1.6478,-1.6484,-1.649,-1.6495,-1.6493,-1.6399,-1.6476,-1.6476,-1.6475,-1.6475,-1.6474,-1.6529,-1.6541,-1.6536,-1.6543,-1.6541,-1.6542,-1.6552,-1.6543,-1.655,-1.6554,-1.6541,-1.6554,-1.655,-1.6552,-1.655,-1.656,-1.6546,-1.6555,-1.6558,-1.656,-1.6564,-1.6493,-1.656,-1.656,-1.656,-1.656,-1.6559,0,-1.6604,-1.6599,-1.6606,-1.6606,-1.6612,-1.6592,-1.6591,-1.6598,-1.6608,-1.6606,-1.6611,-1.6621,-1.6628,-1.6618,-1.6623,-1.6633,-1.6624,-1.6635,-1.6634,-1.6634,-1.6576,-1.657,-1.6642,-1.6642,-1.6641,-1.6641,-1.6641,-1.6641,-1.6644,-1.6664,-1.6654,-1.6673,-1.6667,-1.6679,-1.668,-1.668,-1.6677,-1.669,-1.6695,-1.6688,-1.6682,-1.6686,-1.6692,-1.6689,-1.6692,-1.6706,-1.67,-1.6646,-1.6638,-1.663,-1.6625,-1.6706,-1.6707,-1.6756,-1.6757,-1.6757]}]]